Location: Middelsbur
(53.6609°N, 7.5020°E)
Time: 23:19:44
(UTC+00:00)

Cosmos 1400 Rocket - Pass Details

Date: 06 July 2020
Orbit: 520 x 569 km, 81.2° (Epoch: 14 August)

Event Time Altitude Azimuth Distance (km) Brightness Sun altitude
Rises 21:01:11 0° 340° (NNW) 2,732 8.2 -6.9°
Reaches altitude 10° 21:03:30 10° 331° (NNW) 1,824 7.3 -7.1°
Maximum altitude 21:07:07 33° 266° (W) 920 4.3 -7.4°
Drops below altitude 10° 21:10:40 10° 202° (SSW) 1,784 5.1 -7.7°
Enters shadow 21:12:41 - 193° (SSW) 2,566 5.8 -7.8°
